Weather History for Spirit of St Louis, MO

Change the Weather History Date:

Thursday, November 22, 2012

  Actual Average Record
Temperature  
Mean Temperature 58 °F -  
Max Temperature 70 °F 51 °F 75 °F (2010)
Min Temperature 46 °F 31 °F 16 °F (2000)
Degree Days  
Heating Degree Days 7    
Growing Degree Days 8 (Base 50)    
Moisture  
Dew Point 44 °F    
Average Humidity 62    
Maximum Humidity 83    
Minimum Humidity 37    
Precipitation  
Precipitation 0.05 in - - ()
Sea Level Pressure  
Sea Level Pressure 30.03 in    
Wind  
Wind Speed 7 mph (SW)    
Max Wind Speed 15 mph    
Max Gust Speed 24 mph    
Visibility 10 miles    
Events Rain    
Averages and records for this station are not official NWS values.
T = Trace of Precipitation, MM = Missing Value Source: NWS Daily Summary

Daily Weather History Graph

Daily Weather History Graph

Search for Another Location

Airport:

Trip Planner

Search our weather history database for the weather conditions in past years. The results will help you decide how hot, cold, wet, or windy it might be!

Date:

Astronomy

Nov. 22, 2012 Rise Set
Actual Time 6:52 AM CST 4:44 PM CST
Civil Twilight 6:24 AM CST 5:13 PM CST
Nautical Twilight 5:51 AM CST 5:45 PM CST
Astronomical Twilight 5:19 AM CST 6:17 PM CST
Moon 1:27 PM CST (11/22) 1:16 AM CST (11/22)
Length of Visible Light 10h 49m
Length of Day
9h 51m
Waxing Gibbous, 71% of the Moon is Illuminated
Nov 22
Waxing Gibbous
Nov 28
Full
Dec 6
Last Quarter
Dec 13
New
Dec 19
First Quarter

Hourly Weather History & Observations

Time (CST) Temp. Dew Point Humidity Pressure Visibility Wind Dir Wind Speed Gust Speed Precip Events Conditions
12:54 AM 51.1 °F 44.1 °F 77% 30.13 in 10.0 mi SSW 6.9 mph - N/A   Clear
1:54 AM 51.1 °F 44.1 °F 77% 30.12 in 10.0 mi SSW 5.8 mph - N/A   Clear
2:54 AM 48.9 °F 43.0 °F 80% 30.11 in 9.0 mi Calm Calm - N/A   Clear
3:54 AM 46.0 °F 41.0 °F 83% 30.09 in 8.0 mi Calm Calm - N/A   Clear
4:54 AM 51.1 °F 43.0 °F 74% 30.08 in 10.0 mi SSW 5.8 mph - N/A   Clear
5:54 AM 50.0 °F 42.1 °F 74% 30.07 in 10.0 mi SSW 4.6 mph - N/A   Clear
6:54 AM 48.9 °F 42.1 °F 77% 30.07 in 9.0 mi Calm Calm - N/A   Mostly Cloudy
7:54 AM 53.1 °F 43.0 °F 69% 30.06 in 10.0 mi Variable 3.5 mph - N/A   Mostly Cloudy
8:54 AM 55.9 °F 43.0 °F 62% 30.06 in 10.0 mi SW 8.1 mph - N/A   Mostly Cloudy
9:54 AM 59.0 °F 43.0 °F 55% 30.05 in 10.0 mi South 10.4 mph 18.4 mph N/A   Mostly Cloudy
10:54 AM 64.0 °F 43.0 °F 46% 30.03 in 10.0 mi South 6.9 mph - N/A   Mostly Cloudy
11:54 AM 68.0 °F 41.0 °F 37% 29.99 in 10.0 mi SW 8.1 mph - N/A   Mostly Cloudy
12:54 PM 69.1 °F 42.1 °F 38% 29.96 in 10.0 mi SSW 15.0 mph 21.9 mph N/A   Mostly Cloudy
1:54 PM 70.0 °F 43.0 °F 38% 29.93 in 10.0 mi SSW 15.0 mph 24.2 mph N/A   Mostly Cloudy
2:54 PM 70.0 °F 44.1 °F 39% 29.92 in 10.0 mi SSW 10.4 mph 24.2 mph N/A   Clear
3:54 PM 68.0 °F 44.1 °F 42% 29.91 in 10.0 mi South 6.9 mph - N/A   Overcast
4:54 PM 66.9 °F 44.1 °F 44% 29.92 in 10.0 mi SSW 8.1 mph - N/A   Overcast
5:54 PM 66.9 °F 44.1 °F 44% 29.95 in 10.0 mi SSW 11.5 mph 19.6 mph N/A   Overcast
6:54 PM 62.1 °F 48.0 °F 60% 29.99 in 7.0 mi SW 13.8 mph 24.2 mph 0.02 in Rain Rain
7:54 PM 57.9 °F 51.1 °F 78% 29.99 in 10.0 mi SW 10.4 mph - 0.02 in   Overcast
8:54 PM 57.9 °F 51.1 °F 78% 30.00 in 10.0 mi SW 10.4 mph 20.7 mph 0.01 in   Overcast
9:54 PM 57.0 °F 51.1 °F 81% 30.03 in 10.0 mi WSW 13.8 mph - N/A   Overcast
10:54 PM 57.9 °F 48.0 °F 70% 30.05 in 10.0 mi WNW 15.0 mph 23.0 mph 0.00 in   Overcast
11:54 PM 52.0 °F 37.9 °F 59% 30.11 in 10.0 mi NW 13.8 mph 21.9 mph N/A   Scattered Clouds